This is the latest recevied weather packets stored in our database for station/object IU0KRR-10. If no packets are shown the sender has not sent any weather packets the latest 10 day(s).
| Time | Temp. | Humidity | Pressure | Rain* | Wind** | Luminosity | Snow |
|---|---|---|---|---|---|---|---|
| 1777577231 | 17.78° C | 28% | 876 hPa | - | - | - | - |
| 1777576331 | 18.33° C | 27% | 875.8 hPa | - | - | - | - |
| 1777575430 | 18.89° C | 26% | 875.6 hPa | - | - | - | - |
| 1777574530 | 19.44° C | 25% | 875.6 hPa | - | - | - | - |
| 1777573630 | 20° C | 24% | 875.4 hPa | - | - | - | - |
| 1777572729 | 20° C | 24% | 875.2 hPa | - | - | - | - |
| 1777571829 | 21.11° C | 23% | 875.3 hPa | - | - | - | - |
| 1777570928 | 20.56° C | 23% | 875.1 hPa | - | - | - | - |
| 1777570027 | 21.11° C | 23% | 875.1 hPa | - | - | - | - |
| 1777569127 | 22.22° C | 22% | 874.9 hPa | - | - | - | - |
| 1777568227 | 22.22° C | 23% | 874.8 hPa | - | - | - | - |
| 1777567327 | 22.78° C | 23% | 874.7 hPa | - | - | - | - |
| 1777566427 | 22.22° C | 24% | 874.8 hPa | - | - | - | - |
| 1777565527 | 22.22° C | 24% | 874.8 hPa | - | - | - | - |
| 1777564627 | 22.22° C | 25% | 874.7 hPa | - | - | - | - |
| 1777563727 | 23.33° C | 24% | 874.8 hPa | - | - | - | - |
| 1777562826 | 23.33° C | 24% | 874.8 hPa | - | - | - | - |
| 1777561926 | 23.33° C | 24% | 874.8 hPa | - | - | - | - |
| 1777561026 | 23.89° C | 23% | 874.9 hPa | - | - | - | - |
| 1777560126 | 23.89° C | 24% | 874.9 hPa | - | - | - | - |
| 1777559225 | 23.89° C | 23% | 874.9 hPa | - | - | - | - |
| 1777558325 | 23.89° C | 24% | 875 hPa | - | - | - | - |
| 1777557425 | 23.89° C | 24% | 875 hPa | - | - | - | - |
| 1777556525 | 23.89° C | 24% | 875.1 hPa | - | - | - | - |
| 1777555625 | 23.89° C | 24% | 875.1 hPa | - | - | - | - |
* Rain since midnight (hover to see other rain measurements)
** Current wind speed in m/s (hover to see current wind gust speed)